Time,TemperatureF,DewpointF,PressureIn,WindDirection,WindDirectionDegrees,WindSpeedMPH,WindSpeedGustMPH,Humidity,HourlyPrecipIn,Conditions,Clouds,dailyrainin,SoftwareType,DateUTC
2013-02-17 00:08:00,27.5,14.0,29.95,West,279,3.0,5.0,58,0.00,,,0.00,weatherlink.com 1.10,2013-02-17 05:08:00,
2013-02-17 00:23:00,27.4,14.0,29.95,West,278,2.0,6.0,58,0.00,,,0.00,weatherlink.com 1.10,2013-02-17 05:23:00,
2013-02-17 00:38:00,27.3,15.0,29.95,West,260,3.0,8.0,59,0.00,,,0.00,weatherlink.com 1.10,2013-02-17 05:38:00,
2013-02-17 01:09:00,27.6,14.0,29.96,WNW,295,3.0,6.0,58,0.00,,,0.00,weatherlink.com 1.10,2013-02-17 06:09:00,
2013-02-17 01:24:00,27.1,14.0,29.97,WNW,289,4.0,6.0,59,0.00,,,0.00,weatherlink.com 1.10,2013-02-17 06:24:00,
2013-02-17 01:39:00,27.2,14.0,29.97,NW,313,5.0,8.0,59,0.00,,,0.00,weatherlink.com 1.10,2013-02-17 06:39:00,
2013-02-17 01:54:00,27.5,14.0,29.97,West,275,3.0,8.0,58,0.00,,,0.00,weatherlink.com 1.10,2013-02-17 06:54:00,
2013-02-17 02:09:00,27.5,14.0,29.97,WNW,300,7.0,17.0,58,0.00,,,0.00,weatherlink.com 1.10,2013-02-17 07:09:00,
2013-02-17 02:24:00,27.2,14.0,29.98,NW,306,4.0,11.0,59,0.00,,,0.00,weatherlink.com 1.10,2013-02-17 07:24:00,
2013-02-17 02:39:00,26.9,15.0,29.98,WNW,296,2.0,12.0,61,0.00,,,0.00,weatherlink.com 1.10,2013-02-17 07:39:00,
2013-02-17 02:54:00,26.6,15.0,29.98,NW,313,3.0,9.0,63,0.00,,,0.00,weatherlink.com 1.10,2013-02-17 07:54:00,
2013-02-17 03:09:00,26.1,15.0,29.98,WNW,290,4.0,10.0,64,0.00,,,0.00,weatherlink.com 1.10,2013-02-17 08:09:00,
2013-02-17 03:24:00,25.5,16.0,29.99,WNW,299,2.0,7.0,67,0.00,,,0.00,weatherlink.com 1.10,2013-02-17 08:24:00,
2013-02-17 03:39:00,25.2,16.0,29.98,NW,324,3.0,7.0,67,0.00,,,0.00,weatherlink.com 1.10,2013-02-17 08:39:00,
2013-02-17 03:54:00,25.2,15.0,29.99,NW,319,7.0,14.0,64,0.00,,,0.00,weatherlink.com 1.10,2013-02-17 08:54:00,
2013-02-17 04:09:00,25.1,13.0,30.00,NW,308,3.0,7.0,60,0.00,,,0.00,weatherlink.com 1.10,2013-02-17 09:09:00,
2013-02-17 04:24:00,25.0,12.0,30.00,NW,310,4.0,9.0,58,0.00,,,0.00,weatherlink.com 1.10,2013-02-17 09:24:00,
2013-02-17 04:39:00,24.8,11.0,30.00,NW,305,2.0,11.0,55,0.00,,,0.00,weatherlink.com 1.10,2013-02-17 09:39:00,
2013-02-17 04:54:00,24.9,8.0,30.01,SW,234,4.0,11.0,48,0.00,,,0.00,weatherlink.com 1.10,2013-02-17 09:54:00,
2013-02-17 05:09:00,24.9,7.0,30.02,West,275,6.0,16.0,46,0.00,,,0.00,weatherlink.com 1.10,2013-02-17 10:09:00,
2013-02-17 05:24:00,24.7,6.0,30.02,WNW,295,5.0,12.0,45,0.00,,,0.00,weatherlink.com 1.10,2013-02-17 10:24:00,
2013-02-17 05:39:00,24.6,6.0,30.03,NW,316,2.0,7.0,46,0.00,,,0.00,weatherlink.com 1.10,2013-02-17 10:39:00,
2013-02-17 05:54:00,24.5,7.0,30.03,NW,306,2.0,7.0,48,0.00,,,0.00,weatherlink.com 1.10,2013-02-17 10:54:00,
2013-02-17 06:09:00,24.4,8.0,30.04,West,263,5.0,9.0,49,0.00,,,0.00,weatherlink.com 1.10,2013-02-17 11:09:00,
2013-02-17 06:24:00,24.3,8.0,30.04,WNW,300,5.0,10.0,49,0.00,,,0.00,weatherlink.com 1.10,2013-02-17 11:24:00,
2013-02-17 06:39:00,23.9,8.0,30.05,WNW,296,2.0,11.0,52,0.00,,,0.00,weatherlink.com 1.10,2013-02-17 11:39:00,
2013-02-17 06:54:00,23.4,8.0,30.06,WNW,286,5.0,10.0,52,0.00,,,0.00,weatherlink.com 1.10,2013-02-17 11:54:00,
2013-02-17 07:09:00,23.2,7.0,30.08,WNW,289,9.0,11.0,51,0.00,,,0.00,weatherlink.com 1.10,2013-02-17 12:09:00,
2013-02-17 07:24:00,22.8,5.0,30.08,WNW,300,3.0,21.0,47,0.00,,,0.00,weatherlink.com 1.10,2013-02-17 12:24:00,
2013-02-17 07:40:00,22.7,6.0,30.09,West,279,5.0,16.0,48,0.00,,,0.00,weatherlink.com 1.10,2013-02-17 12:40:00,
2013-02-17 07:55:00,22.6,6.0,30.09,North,360,1.0,9.0,49,0.00,,,0.00,weatherlink.com 1.10,2013-02-17 12:55:00,
2013-02-17 08:10:00,22.7,6.0,30.10,NW,306,3.0,10.0,48,0.00,,,0.00,weatherlink.com 1.10,2013-02-17 13:10:00,
2013-02-17 08:25:00,23.2,5.0,30.11,NW,304,7.0,15.0,45,0.00,,,0.00,weatherlink.com 1.10,2013-02-17 13:25:00,
2013-02-17 08:40:00,23.6,5.0,30.11,WNW,300,6.0,15.0,44,0.00,,,0.00,weatherlink.com 1.10,2013-02-17 13:40:00,
2013-02-17 08:55:00,24.3,6.0,30.12,WNW,292,7.0,15.0,45,0.00,,,0.00,weatherlink.com 1.10,2013-02-17 13:55:00,
2013-02-17 09:10:00,24.5,5.0,30.12,West,274,9.0,23.0,44,0.00,,,0.00,weatherlink.com 1.10,2013-02-17 14:10:00,
2013-02-17 09:25:00,24.7,5.0,30.12,WNW,302,9.0,18.0,43,0.00,,,0.00,weatherlink.com 1.10,2013-02-17 14:25:00,
2013-02-17 09:40:00,25.9,6.0,30.12,West,277,4.0,12.0,42,0.00,,,0.00,weatherlink.com 1.10,2013-02-17 14:40:00,
2013-02-17 09:55:00,26.6,5.0,30.13,West,265,6.0,15.0,40,0.00,,,0.00,weatherlink.com 1.10,2013-02-17 14:55:00,
2013-02-17 10:10:00,27.0,4.0,30.14,NNE,27,6.0,14.0,37,0.00,,,0.00,weatherlink.com 1.10,2013-02-17 15:10:00,
2013-02-17 10:25:00,27.8,4.0,30.14,WNW,296,5.0,16.0,36,0.00,,,0.00,weatherlink.com 1.10,2013-02-17 15:25:00,
2013-02-17 10:40:00,28.7,5.0,30.15,NW,316,10.0,17.0,36,0.00,,,0.00,weatherlink.com 1.10,2013-02-17 15:40:00,
2013-02-17 10:55:00,29.0,3.0,30.15,North,11,7.0,19.0,33,0.00,,,0.00,weatherlink.com 1.10,2013-02-17 15:55:00,
2013-02-17 11:10:00,29.6,4.0,30.15,WNW,286,10.0,14.0,34,0.00,,,0.00,weatherlink.com 1.10,2013-02-17 16:10:00,
2013-02-17 11:25:00,30.3,5.0,30.15,NW,306,8.0,15.0,34,0.00,,,0.00,weatherlink.com 1.10,2013-02-17 16:25:00,
2013-02-17 11:40:00,31.0,5.0,30.16,NW,315,8.0,14.0,33,0.00,,,0.00,weatherlink.com 1.10,2013-02-17 16:40:00,
2013-02-17 11:55:00,31.2,5.0,30.15,WNW,294,8.0,16.0,33,0.00,,,0.00,weatherlink.com 1.10,2013-02-17 16:55:00,
2013-02-17 12:10:00,32.4,6.0,30.14,WNW,292,11.0,19.0,33,0.00,,,0.00,weatherlink.com 1.10,2013-02-17 17:10:00,
2013-02-17 12:25:00,33.3,6.0,30.14,WNW,302,6.0,10.0,32,0.00,,,0.00,weatherlink.com 1.10,2013-02-17 17:25:00,
2013-02-17 12:40:00,34.9,6.0,30.13,NNW,348,8.0,10.0,30,0.00,,,0.00,weatherlink.com 1.10,2013-02-17 17:40:00,
2013-02-17 12:55:00,34.6,5.0,30.14,West,262,6.0,11.0,29,0.00,,,0.00,weatherlink.com 1.10,2013-02-17 17:55:00,
2013-02-17 13:10:00,34.2,6.0,30.13,WNW,283,6.0,12.0,30,0.00,,,0.00,weatherlink.com 1.10,2013-02-17 18:10:00,
2013-02-17 13:25:00,34.1,5.0,30.14,NW,306,9.0,15.0,29,0.00,,,0.00,weatherlink.com 1.10,2013-02-17 18:25:00,
2013-02-17 13:40:00,34.5,5.0,30.13,NW,313,3.0,17.0,29,0.00,,,0.00,weatherlink.com 1.10,2013-02-17 18:40:00,
2013-02-17 13:55:00,36.4,6.0,30.13,WNW,299,6.0,13.0,28,0.00,,,0.00,weatherlink.com 1.10,2013-02-17 18:55:00,
2013-02-17 14:10:00,36.0,5.0,30.12,NW,316,5.0,13.0,27,0.00,,,0.00,weatherlink.com 1.10,2013-02-17 19:10:00,
2013-02-17 14:25:00,36.1,6.0,30.12,WSW,252,7.0,12.0,28,0.00,,,0.00,weatherlink.com 1.10,2013-02-17 19:25:00,
2013-02-17 14:40:00,36.6,5.0,30.12,WNW,288,5.0,12.0,27,0.00,,,0.00,weatherlink.com 1.10,2013-02-17 19:40:00,
2013-02-17 14:55:00,36.0,6.0,30.13,NE,55,8.0,14.0,28,0.00,,,0.00,weatherlink.com 1.10,2013-02-17 19:55:00,
2013-02-17 15:10:00,36.7,6.0,30.13,NW,321,10.0,14.0,28,0.00,,,0.00,weatherlink.com 1.10,2013-02-17 20:10:00,
2013-02-17 15:25:00,36.8,6.0,30.14,SSW,206,6.0,10.0,28,0.00,,,0.00,weatherlink.com 1.10,2013-02-17 20:25:00,
2013-02-17 15:40:00,35.5,6.0,30.14,West,270,4.0,17.0,29,0.00,,,0.00,weatherlink.com 1.10,2013-02-17 20:40:00,
2013-02-17 15:55:00,35.7,6.0,30.14,WNW,291,5.0,10.0,29,0.00,,,0.00,weatherlink.com 1.10,2013-02-17 20:55:00,
2013-02-17 16:10:00,35.8,6.0,30.14,WSW,238,5.0,10.0,29,0.00,,,0.00,weatherlink.com 1.10,2013-02-17 21:10:00,
2013-02-17 16:25:00,35.5,5.0,30.14,North,360,2.0,11.0,28,0.00,,,0.00,weatherlink.com 1.10,2013-02-17 21:25:00,
2013-02-17 16:40:00,35.8,6.0,30.15,WNW,302,3.0,9.0,29,0.00,,,0.00,weatherlink.com 1.10,2013-02-17 21:40:00,
2013-02-17 16:55:00,35.2,6.0,30.16,NW,306,4.0,9.0,29,0.00,,,0.00,weatherlink.com 1.10,2013-02-17 21:55:00,
2013-02-17 17:10:00,34.4,7.0,30.16,NNW,342,4.0,6.0,31,0.00,,,0.00,weatherlink.com 1.10,2013-02-17 22:10:00,
2013-02-17 17:25:00,33.5,6.0,30.16,West,281,2.0,6.0,32,0.00,,,0.00,weatherlink.com 1.10,2013-02-17 22:25:00,
2013-02-17 17:40:00,32.6,6.0,30.17,West,280,0.0,6.0,33,0.00,,,0.00,weatherlink.com 1.10,2013-02-17 22:40:00,
2013-02-17 17:56:00,31.8,6.0,30.18,NW,320,0.0,5.0,34,0.00,,,0.00,weatherlink.com 1.10,2013-02-17 22:56:00,
2013-02-17 18:11:00,31.1,6.0,30.19,WNW,300,1.0,3.0,35,0.00,,,0.00,weatherlink.com 1.10,2013-02-17 23:11:00,
2013-02-17 18:26:00,30.4,7.0,30.19,NNW,333,0.0,2.0,37,0.00,,,0.00,weatherlink.com 1.10,2013-02-17 23:26:00,
2013-02-17 18:41:00,29.4,8.0,30.20,NNW,333,0.0,2.0,41,0.00,,,0.00,weatherlink.com 1.10,2013-02-17 23:41:00,
2013-02-17 18:56:00,28.3,11.0,30.20,NNW,333,0.0,1.0,48,0.00,,,0.00,weatherlink.com 1.10,2013-02-17 23:56:00,
2013-02-17 19:11:00,27.4,11.0,30.20,NNW,332,0.0,2.0,50,0.00,,,0.00,weatherlink.com 1.10,2013-02-18 00:11:00,
2013-02-17 19:26:00,26.9,10.0,30.21,WNW,288,0.0,3.0,50,0.00,,,0.00,weatherlink.com 1.10,2013-02-18 00:26:00,
2013-02-17 19:41:00,26.9,9.0,30.21,NW,309,0.0,2.0,47,0.00,,,0.00,weatherlink.com 1.10,2013-02-18 00:41:00,
2013-02-17 19:56:00,27.0,9.0,30.22,West,280,1.0,1.0,46,0.00,,,0.00,weatherlink.com 1.10,2013-02-18 00:56:00,
2013-02-17 20:11:00,26.8,7.0,30.22,North,355,1.0,2.0,43,0.00,,,0.00,weatherlink.com 1.10,2013-02-18 01:11:00,
2013-02-17 20:26:00,26.8,7.0,30.23,ESE,107,2.0,3.0,44,0.00,,,0.00,weatherlink.com 1.10,2013-02-18 01:26:00,
2013-02-17 20:41:00,26.7,7.0,30.23,ESE,107,0.0,2.0,44,0.00,,,0.00,weatherlink.com 1.10,2013-02-18 01:41:00,
2013-02-17 20:56:00,26.3,8.0,30.24,ESE,107,0.0,0.0,46,0.00,,,0.00,weatherlink.com 1.10,2013-02-18 01:56:00,
2013-02-17 21:11:00,25.2,7.0,30.25,ESE,107,0.0,0.0,46,0.00,,,0.00,weatherlink.com 1.10,2013-02-18 02:11:00,
2013-02-17 21:26:00,24.3,8.0,30.25,ESE,107,0.0,0.0,50,0.00,,,0.00,weatherlink.com 1.10,2013-02-18 02:26:00,
2013-02-17 21:41:00,23.8,7.0,30.25,ESE,107,1.0,1.0,48,0.00,,,0.00,weatherlink.com 1.10,2013-02-18 02:41:00,
2013-02-17 21:56:00,23.9,8.0,30.25,ESE,107,0.0,1.0,51,0.00,,,0.00,weatherlink.com 1.10,2013-02-18 02:56:00,
2013-02-17 22:11:00,23.2,9.0,30.26,ESE,107,0.0,1.0,56,0.00,,,0.00,weatherlink.com 1.10,2013-02-18 03:11:00,
2013-02-17 22:26:00,22.8,8.0,30.26,ESE,107,0.0,0.0,54,0.00,,,0.00,weatherlink.com 1.10,2013-02-18 03:26:00,
2013-02-17 22:41:00,22.6,7.0,30.27,ESE,107,0.0,0.0,51,0.00,,,0.00,weatherlink.com 1.10,2013-02-18 03:41:00,
2013-02-17 22:56:00,22.0,7.0,30.27,ESE,107,0.0,0.0,53,0.00,,,0.00,weatherlink.com 1.10,2013-02-18 03:56:00,
2013-02-17 23:11:00,21.7,8.0,30.27,ESE,107,0.0,0.0,57,0.00,,,0.00,weatherlink.com 1.10,2013-02-18 04:11:00,
2013-02-17 23:26:00,21.8,8.0,30.28,ESE,107,1.0,1.0,55,0.00,,,0.00,weatherlink.com 1.10,2013-02-18 04:26:00,
2013-02-17 23:41:00,22.6,10.0,30.29,SE,127,1.0,2.0,58,0.00,,,0.00,weatherlink.com 1.10,2013-02-18 04:41:00,
2013-02-17 23:56:00,23.1,9.0,30.29,SE,132,1.0,2.0,54,0.00,,,0.00,weatherlink.com 1.10,2013-02-18 04:56:00,